Regional Weather Roundup
Issued by NWS Columbia, SC

Home | Current Version | Previous Version | Text Only | Print | Product List | Glossary On
Versions: 1 2 3 4 5 6 7 8 9 10 11 12 13 14 15 16 17 18 19 20 21 22 23 24 25 26 27 28 29 30 31 32 33 34 35 36 37 38 39 40 41 42 43 44 45 46 47 48 49 50
000
ASUS42 KCAE 211610
RWRCAE
REGIONAL WEATHER ROUNDUP
NATIONAL WEATHER SERVICE COLUMBIA SC
1200 PM EDT TUE OCT 21 2014

NOTE: "FAIR" INDICATES FEW OR NO CLOUDS BELOW 12,000 FEET WITH NO
SIGNIFICANT WEATHER AND/OR OBSTRUCTIONS TO VISIBILITY.

NOT ALL STATIONS ARE QUALITY CONTROLLED BY THE NATIONAL
WEATHER SERVICE. USE DATA WITH CAUTION...ESPECIALLY
DEWPOINT OBSERVATIONS.

SCZ001>056-GAZ040-063>065-077-211700-
...UPSTATE SOUTH CAROLINA...

CITY           SKY/WX    TMP DP  RH WIND       PRES   REMARKS
ANDERSON       SUNNY     70  50  49 SW10      29.97F
LIBERTY        FAIR      70  53  55 W12       29.96F
SPARTANBURG    FAIR      70  52  52 W3        29.95F
CLEMSON        SUNNY     69  50  50 VRB6      29.98F
GREENVILLE     SUNNY     70  49  47 W12       29.97S
GREENWOOD      SUNNY     71  53  52 VRB6      29.98F
GREER          SUNNY     68  52  56 W7        29.95F
ROCK HILL      SUNNY     70  50  49 VRB3      29.95F
LAURENS        FAIR      70  41  35 W6        29.97F


...CENTRAL SOUTH CAROLINA...

CITY           SKY/WX    TMP DP  RH WIND       PRES   REMARKS
COLUMBIA APT   SUNNY     73  48  41 SW6       29.95F
COLUMBIA OWENS SUNNY     71  51  49 W6        29.97F
DARLINGTON     SUNNY     72  52  49 NW6       29.95F
FLORENCE       SUNNY     73  51  46 W8        29.94F
ORANGEBURG     SUNNY     73  52  47 NW7       29.96F
SUMTER SHAW    SUNNY     71  52  51 W9        29.93F
NEWBERRY       FAIR      70  54  56 SW5       29.99F
AIKEN          FAIR      73  54  49 NW6       30.00F
BARNWELL       FAIR      75  52  43 W10       29.97F
MANNING        FAIR      73  55  53 NW5       29.95F
CAMDEN         FAIR      68  50  52 CALM      29.96F
LANCASTER      FAIR      68  50  52 W9        29.95F
WINNSBORO      FAIR      72  50  46 NW3       29.95F


...EASTERN AND COASTAL SOUTH CAROLINA...

CITY           SKY/WX    TMP DP  RH WIND       PRES   REMARKS
MYRTLE BEACH   SUNNY     73  54  49 NW8       29.94F
N MYRTLE BCH   SUNNY     73  54  51 NW8       29.93F
CONWAY         FAIR      73  55  53 SW6       29.94F HAZE
HARTSVILLE     FAIR      72  30  21 W3        29.94F
FLORENCE       SUNNY     73  51  46 W8        29.94F
DARLINGTON     SUNNY     72  52  49 NW6       29.95F
CHARLESTON APT SUNNY     77  52  41 NW10      29.96F
MOUNT PLEASANT FAIR      75  55  50 NW5       29.95F
WALTERBORO     SUNNY     75  48  38 NW7       29.97F
BEAUFORT       SUNNY     75  56  51 NW9       29.97F


...EASTERN GEORGIA...

CITY           SKY/WX    TMP DP  RH WIND       PRES   REMARKS
AUGUSTA BUSH F SUNNY     74  47  38 CALM      29.98F
AUGUSTA DANIEL SUNNY     73  49  42 NW8       29.99S
THOMSON        SUNNY     72  59  63 NW5       30.04S
WASHINGTON     FAIR      73  59  60 NW5       30.00F
CLAXTON        FAIR      75  55  50 W6        30.00S
SYLVANIA       SUNNY     77  58  51 NW3       29.99F
STATESBORO     SUNNY     73  55  52 NW7       29.99F
SAVANNAH       SUNNY     76  55  48 NW6       29.99F


...SOUTHERN NORTH CAROLINA...

CITY           SKY/WX    TMP DP  RH WIND       PRES   REMARKS
CHARLOTTE      MOSUNNY   70  45  40 VRB5      29.95F
MONROE         SUNNY     70  46  42 VRB5      29.94F
WADESBORO      SUNNY     71  50  46 CALM      29.93F
ROCKINGHAM     SUNNY     69  51  53 NW5       29.94F
RUTHERFORDTON  SUNNY     69  47  46 W8G18     29.96S
ASHEVILLE      SUNNY     62  47  57 N8        29.99F

$$


USA.gov is the U.S. government's official web portal to all federal, state and local government web resources and services.